TimeEDT,TemperatureF,Dew PointF,Humidity,Sea Level PressureIn,VisibilityMPH,Wind Direction,Wind SpeedMPH,Gust SpeedMPH,PrecipitationIn,Events,Conditions,WindDirDegrees,DateUTC
12:51 AM,80.1,72.0,76,30.21,10.0,WSW,8.1,-,N/A,,Clear,240,2013-07-07 04:51:00
1:51 AM,80.1,73.0,79,30.21,10.0,SW,9.2,-,N/A,,Partly Cloudy,230,2013-07-07 05:51:00
2:51 AM,79.0,72.0,79,30.20,10.0,WSW,9.2,-,N/A,,Clear,250,2013-07-07 06:51:00
3:51 AM,78.1,72.0,81,30.20,10.0,WSW,6.9,-,N/A,,Clear,250,2013-07-07 07:51:00
4:51 AM,78.1,72.0,81,30.20,10.0,WSW,6.9,-,N/A,,Clear,240,2013-07-07 08:51:00
5:51 AM,78.1,72.0,81,30.21,10.0,SW,8.1,-,N/A,,Clear,230,2013-07-07 09:51:00
6:51 AM,79.0,72.0,79,30.22,10.0,WSW,6.9,-,N/A,,Clear,240,2013-07-07 10:51:00
7:51 AM,81.0,71.1,72,30.23,10.0,WSW,6.9,-,N/A,,Clear,240,2013-07-07 11:51:00
8:51 AM,82.0,71.1,69,30.22,10.0,SW,8.1,-,N/A,,Clear,230,2013-07-07 12:51:00
9:51 AM,82.9,72.0,69,30.22,10.0,SW,9.2,-,N/A,,Clear,230,2013-07-07 13:51:00
10:51 AM,84.0,71.1,65,30.21,10.0,SW,9.2,-,N/A,,Clear,230,2013-07-07 14:51:00
11:51 AM,86.0,71.1,61,30.21,10.0,WSW,10.4,-,N/A,,Clear,240,2013-07-07 15:51:00
12:51 PM,84.9,71.1,63,30.20,10.0,SW,9.2,17.3,N/A,,Clear,220,2013-07-07 16:51:00
1:51 PM,84.9,72.0,65,30.19,10.0,WSW,10.4,17.3,N/A,,Clear,240,2013-07-07 17:51:00
2:51 PM,86.0,72.0,63,30.18,10.0,SW,12.7,18.4,N/A,,Clear,230,2013-07-07 18:51:00
3:51 PM,84.9,72.0,65,30.16,10.0,SW,10.4,-,N/A,,Clear,230,2013-07-07 19:51:00
4:51 PM,84.9,71.1,63,30.14,10.0,SW,12.7,20.7,N/A,,Clear,220,2013-07-07 20:51:00
5:51 PM,82.9,72.0,69,30.12,10.0,SW,11.5,-,N/A,,Clear,230,2013-07-07 21:51:00
6:51 PM,82.9,72.0,69,30.12,10.0,SW,13.8,18.4,N/A,,Clear,220,2013-07-07 22:51:00
7:51 PM,82.0,72.0,71,30.13,10.0,SW,11.5,-,N/A,,Clear,230,2013-07-07 23:51:00
8:51 PM,81.0,72.0,74,30.14,10.0,SW,10.4,18.4,N/A,,Clear,230,2013-07-08 00:51:00
9:51 PM,81.0,72.0,74,30.16,10.0,SW,12.7,18.4,N/A,,Clear,230,2013-07-08 01:51:00
10:51 PM,80.1,72.0,76,30.17,10.0,SW,11.5,19.6,N/A,,Clear,230,2013-07-08 02:51:00
11:51 PM,80.1,72.0,76,30.18,10.0,WSW,10.4,-,N/A,,Clear,240,2013-07-08 03:51:00